This demonstration page uses our WeatherBlox Daily Observations layout. Learn more.

Left ArrowRight Arrow

39.29038, -76.61219

Hourly Observations for May 4, 2021

Temp ( °F °C ) Dew Point ( °F °C ) Humidity (%) Winds ( mph kmh ) Pressure ( in mb ) Visibility ( mi km ) Precip ( " mm )
12:35 am 00:35 Cloudy 70 21.1 64 17.8 82 82 SW 8 13 29.66 1004 10 16.0934 0.001 0.001
12:54 am 00:54 Cloudy 69 20.6 64 17.8 84 84 SW 7 11 29.66 1004 10 16.0934 0.001 0.001
1:54 am 01:54 Cloudy 69 20.6 65 18.3 87 87 SW 9 15 29.67 1005 10 16.0934 0.001 0.001
2:10 am 02:10 Cloudy 69 20.6 65 18.3 87 87 SW 8 13 29.67 1005 10 16.0934 0 0
2:50 am 02:50 Mostly Cloudy 70 21 64 18 83 83 WSW 8 13 29.67 1005 10 16.0934 0 0
2:54 am 02:54 Mostly Cloudy 69 20.6 65 18.3 87 87 WSW 7 11 29.67 1005 10 16.0934 0 0
3:54 am 03:54 Cloudy with Light Rain 69 20.6 65 18.3 87 87 WSW 9 15 29.67 1005 10 16.0934 0.01 0.254
4:54 am 04:54 Mostly Cloudy 68 20 64 17.8 87 87 WSW 8 13 29.68 1005 10 16.0934 0.001 0.001
5:54 am 05:54 Mostly Cloudy 68 20 64 17.8 87 87 WSW 9 15 29.69 1005 10 16.0934 0.001 0.001
6:54 am 06:54 Mostly Cloudy 68 20 64 17.8 87 87 WSW 6 9 29.7 1006 10 16.0934 0 0
7:54 am 07:54 Partly Cloudy 71 21.7 64 17.8 79 79 W 9 15 29.73 1007 10 16.0934 0 0
8:54 am 08:54 Mostly Sunny 74 23.3 64 17.8 71 71 WSW 9 15 29.74 1007 10 16.0934 0 0
9:54 am 09:54 Partly Cloudy 79 26.1 63 17.2 58 58 W 13 20 29.78 1009 10 16.0934 0 0
10:54 am 10:54 Partly Cloudy 80 26.7 63 17.2 56 56 W 9 15 29.76 1008 10 16.0934 0 0
11:54 am 11:54 Partly Cloudy 83 28.3 62 16.7 49 49 WSW 12 19 29.75 1008 10 16.0934 0 0
12:54 pm 12:54 Mostly Cloudy 85 29.4 62 16.7 46 46 W 8 13 29.75 1008 10 16.0934 0 0
1:54 pm 13:54 Mostly Cloudy 86 30 61 16.1 43 43 WSW 8 13 29.73 1007 10 16.0934 0 0
2:54 pm 14:54 Cloudy 85 29.4 63 17.2 48 48 SW 7 11 29.73 1007 10 16.0934 0 0
3:54 pm 15:54 Mostly Cloudy 85 29.4 63 17.2 48 48 SW 9 15 29.7 1006 10 16.0934 0 0
4:54 pm 16:54 Mostly Cloudy 83 28.3 62 16.7 49 49 SSW 6 9 29.7 1006 10 16.0934 0 0
5:54 pm 17:54 Cloudy with Light Rain 77 25 66 18.9 69 69 SSW 6 9 29.72 1006 7 11.26538 0.001 0.001
6:54 pm 18:54 Mostly Cloudy 73 22.8 68 20 84 84 SE 8 13 29.65 1004 10 16.0934 0.06 1.524
7:54 pm 19:54 Mostly Cloudy 71 21.7 66 18.9 84 84 SSW 5 7 29.67 1005 10 16.0934 0 0
8:54 pm 20:54 Mostly Cloudy 69 20.6 64 17.8 84 84 SW 7 11 29.71 1006 10 16.0934 0 0
9:54 pm 21:54 Partly Cloudy 67 19.4 63 17.2 87 87 SW 7 11 29.72 1006 10 16.0934 0 0
10:54 pm 22:54 Partly Cloudy 67 19.4 63 17.2 87 87 SSW 5 7 29.69 1006 10 16.0934 0 0
11:54 pm 23:54 Mostly Cloudy 66 18.9 63 17.2 90 90 SW 3 6 29.72 1006 10 16.0934 0 0

Powered by AerisWeather